DW1384 Weather Reports


time (UTC)temp
C
wind
direction
speed
KPH
gust
KPH
rain 1hr
cm
rain 24hr
cm
rain mn
cm
humidity
%
barometer
mb
20260904151947 23 337 0.0 0.0 0.00 0.00 0.00 70 1011.3
20260904151441 23 263 0.0 0.0 0.00 0.00 0.00 70 1011.3
20260904151200 23 276 0.0 0.0 0.00 0.00 0.00 69 1011.4
20260904150430 24 299 0.0 0.0 0.00 0.00 0.00 69 1011.5
20260904150149 24 149 0.0 0.0 0.00 0.00 0.00 69 1011.4
20260904145417 23 215 0.0 0.0 0.00 0.00 0.00 69 1011.6
20260904144911 23 255 0.0 0.0 0.00 0.00 0.00 69 1011.5
20260904144856 23 278 0.0 0.0 0.00 0.00 0.00 69 1011.6
20260904143859 23 286 0.0 0.0 0.00 0.00 0.00 68 1011.6
20260904143616 24 247 0.0 0.0 0.00 0.00 0.00 68 1011.7
20260904142854 24 283 0.0 0.0 0.00 0.00 0.00 68 1011.8
20260904142618 24 303 0.0 0.0 0.00 0.00 0.00 68 1011.7
20260904141853 24 247 0.0 0.0 0.00 0.00 0.00 68 1011.7
20260904141354 24 264 0.0 0.0 0.00 0.00 0.00 69 1011.6
20260904141117 24 321 0.0 0.0 0.00 0.00 0.00 69 1011.8
20260904140353 24 273 0.0 0.0 0.00 0.00 0.00 69 1011.7
20260904140113 24 130 0.0 0.0 0.00 0.00 0.00 68 1011.9
20260904135354 24 295 0.0 0.0 0.00 0.00 0.00 69 1011.6
20260904134853 23 247 0.0 0.0 0.00 0.00 0.00 69 1011.7
20260904134353 23 348 0.0 0.0 0.00 0.00 0.00 70 1011.7
20260904133854 23 157 0.0 0.0 0.00 0.00 0.00 70 1011.6
20260904133353 23 52 0.0 0.0 0.00 0.00 0.00 70 1011.6
20260904132853 23 249 0.0 0.0 0.00 0.00 0.00 70 1011.6
20260904132353 23 153 0.0 0.0 0.00 0.00 0.00 71 1011.6
20260904131851 23 252 0.0 0.0 0.00 0.00 0.00 72 1011.6
20260904131352 23 204 0.0 0.0 0.00 0.00 0.00 72 1011.6
20260904131332 23 241 0.0 0.0 0.00 0.00 0.00 72 1011.6
20260904130349 23 358 0.0 0.0 0.00 0.00 0.00 73 1011.7
20260904125850 23 174 0.0 0.0 0.00 0.00 0.00 73 1011.9
20260904125350 23 327 0.0 0.0 0.00 0.00 0.00 75 1011.8
20260904124850 23 348 0.0 0.0 0.00 0.00 0.00 75 1011.9
20260904124557 23 321 0.0 0.0 0.00 0.00 0.00 75 1012.1
20260904124443 23 335 0.0 0.0 0.00 0.00 0.00 75 1012.0
20260904123347 23 332 0.0 0.0 0.00 0.00 0.00 76 1011.9
20260904122847 23 72 0.0 0.0 0.00 0.00 0.00 76 1012.0
20260904122348 23 237 0.0 0.0 0.00 0.00 0.00 76 1011.9
20260904121848 23 13 0.0 0.0 0.00 0.00 0.00 76 1012.0
20260904121601 23 23 0.0 0.0 0.00 0.00 0.00 76 1012.2
20260904120844 23 317 0.0 0.0 0.00 0.00 0.00 76 1012.1
20260904120343 23 131 0.0 0.0 0.00 0.00 0.00 77 1012.1
20260904115843 22 173 0.0 0.0 0.00 0.00 0.00 77 1012.1
20260904115344 22 207 0.0 0.0 0.00 0.00 0.00 77 1012.1
20260904114844 22 220 0.0 0.0 0.00 0.00 0.00 77 1012.0
20260904114341 22 353 0.0 0.0 0.00 0.00 0.00 77 1012.0
20260904113842 22 58 0.0 0.0 0.00 0.00 0.00 77 1012.0
20260904113340 22 116 0.0 0.0 0.00 0.00 0.00 78 1012.0
20260904112839 22 260 0.0 0.0 0.00 0.00 0.00 78 1012.1
20260904112336 22 269 0.0 0.0 0.00 0.00 0.00 78 1012.1
20260904111836 22 276 0.0 0.0 0.00 0.00 0.00 79 1012.2
20260904111335 22 274 0.0 0.0 0.00 0.00 0.00 80 1012.2
20260904110834 22 323 0.0 0.0 0.00 0.00 0.00 81 1012.3
20260904110336 22 85 0.0 0.0 0.00 0.00 0.00 82 1012.3
20260904105833 22 257 0.0 0.0 0.00 0.00 0.00 82 1012.3
20260904105333 22 294 0.0 0.0 0.00 0.00 0.00 83 1012.3
20260904104833 22 184 0.0 0.0 0.00 0.00 0.00 84 1012.4
20260904104332 21 213 0.0 0.0 0.00 0.00 0.00 85 1012.4
20260904103834 21 206 0.0 0.0 0.00 0.00 0.00 86 1012.5
20260904103332 21 112 0.0 0.0 0.00 0.00 0.00 87 1012.4
20260904103052 20 181 0.0 0.0 0.00 0.00 0.00 87 1012.5
20260904102334 20 153 0.0 0.0 0.00 0.00 0.00 87 1012.8
20260904101832 20 158 0.0 0.0 0.00 0.00 0.00 87 1012.9
20260904101332 20 207 0.0 0.0 0.00 0.00 0.00 87 1012.9
20260904100831 20 141 0.0 0.0 0.00 0.00 0.00 87 1013.1
20260904100331 20 140 0.0 0.0 0.00 0.00 0.00 87 1013.0
20260904095832 20 126 0.0 0.0 0.00 0.00 0.00 87 1013.0
20260904095331 20 126 0.0 0.0 0.00 0.00 0.00 87 1013.0
20260904094831 20 121 0.0 0.0 0.00 0.00 0.00 86 1013.1
20260904094333 20 177 0.0 0.0 0.00 0.00 0.00 86 1013.3
20260904093831 20 176 0.0 0.0 0.00 0.00 0.00 86 1013.3
20260904093330 20 198 0.0 0.0 0.00 0.00 0.00 86 1013.3
20260904092830 20 198 0.0 0.0 0.00 0.00 0.00 85 1013.4
20260904092605 20 201 0.0 0.0 0.00 0.00 0.00 85 1013.4
20260904091828 20 224 0.0 0.0 0.00 0.00 0.00 85 1013.4
20260904091327 20 200 0.0 0.0 0.00 0.00 0.00 85 1013.4
20260904091054 20 151 0.0 0.0 0.00 0.00 0.00 84 1013.3
20260904090548 20 174 0.0 0.0 0.00 0.00 0.00 84 1013.3
20260904085830 20 171 0.0 0.0 0.00 0.00 0.00 84 1013.3
20260904085330 20 189 0.0 0.0 0.00 0.00 0.00 84 1013.3
20260904084828 20 268 0.0 0.0 0.00 0.00 0.00 84 1013.4
20260904084327 20 245 0.0 0.0 0.00 0.00 0.00 84 1013.4
20260904083826 20 209 0.0 0.0 0.00 0.00 0.00 84 1013.4
20260904083324 20 219 0.0 0.0 0.00 0.00 0.00 84 1013.4
20260904082824 20 151 0.0 0.0 0.00 0.00 0.00 84 1013.3
20260904082324 20 22 0.0 0.0 0.00 0.00 0.00 84 1013.4
20260904081824 20 226 0.0 0.0 0.00 0.00 0.00 84 1013.4
20260904081319 20 244 0.0 0.0 0.00 0.00 0.00 84 1013.4
20260904080819 20 188 0.0 0.0 0.00 0.00 0.00 84 1013.5
20260904080319 20 226 0.0 0.0 0.00 0.00 0.00 84 1013.5
20260904080043 20 168 0.0 0.0 0.00 0.00 0.00 84 1013.5
20260904075801 20 178 0.0 0.0 0.00 0.00 0.00 84 1013.7
20260904074819 20 343 0.0 0.0 0.00 0.00 0.00 84 1013.8
20260904074642 20 315 0.0 0.0 0.00 0.00 0.00 84 1013.8
20260904074544 20 311 0.0 0.0 0.00 0.00 0.00 84 1013.8
20260904073319 20 259 0.0 0.0 0.00 0.00 0.00 84 1013.8
20260904072815 20 28 0.0 0.0 0.00 0.00 0.00 84 1013.9
20260904071815 20 162 0.0 0.0 0.00 0.00 0.00 83 1013.9
20260904071535 20 276 0.0 0.0 0.00 0.00 0.00 83 1014.0
20260904070813 20 207 0.0 0.0 0.00 0.00 0.00 84 1014.0
20260904070313 20 201 0.0 0.0 0.00 0.00 0.00 84 1014.0
20260904065813 20 285 0.0 0.0 0.00 0.00 0.00 84 1013.9
20260904065313 20 149 0.0 0.0 0.00 0.00 0.00 84 1014.0
20260904064811 20 166 0.0 0.0 0.00 0.00 0.00 84 1014.1
20260904064312 20 207 0.0 0.0 0.00 0.00 0.00 84 1014.2
20260904063814 20 161 0.0 0.0 0.00 0.00 0.00 84 1014.3
20260904063311 20 129 0.0 0.0 0.00 0.00 0.00 84 1014.4
20260904063048 20 254 0.0 0.0 0.00 0.00 0.00 84 1014.4
20260904062532 20 221 0.0 0.0 0.00 0.00 0.00 84 1014.4
20260904061811 20 122 0.0 0.0 0.00 0.00 0.00 84 1014.5
20260904061310 20 255 0.0 0.0 0.00 0.00 0.00 84 1014.5
20260904060807 20 196 0.0 0.0 0.00 0.00 0.00 84 1014.5
20260904060307 20 107 0.0 0.0 0.00 0.00 0.00 84 1014.5
20260904055807 20 232 0.0 0.0 0.00 0.00 0.00 84 1014.5
20260904055308 20 145 0.0 0.0 0.00 0.00 0.00 84 1014.5
20260904054808 20 84 0.0 0.0 0.00 0.00 0.00 85 1014.5
20260904054307 19 112 0.0 0.0 0.00 0.00 0.00 85 1014.7
20260904053810 19 233 0.0 0.0 0.00 0.00 0.00 85 1014.8
20260904053308 19 186 0.0 0.0 0.00 0.00 0.00 85 1014.8
20260904052807 19 157 0.0 0.0 0.00 0.00 0.00 85 1014.8
20260904052308 19 253 0.0 0.0 0.00 0.00 0.00 85 1014.9
20260904052026 19 179 0.0 0.0 0.00 0.00 0.00 85 1014.9
20260904051307 19 194 0.0 0.0 0.00 0.00 0.00 85 1015.0
20260904051032 19 197 0.0 0.0 0.00 0.00 0.00 85 1014.9
20260904050307 19 280 0.0 0.0 0.00 0.00 0.00 85 1015.0
20260904045807 19 198 0.0 0.0 0.00 0.00 0.00 85 1015.0
20260904045532 19 202 0.0 0.0 0.00 0.00 0.00 85 1015.0
20260904044808 19 138 0.0 0.0 0.00 0.00 0.00 85 1014.9
20260904044307 19 166 0.0 0.0 0.00 0.00 0.00 85 1015.0
20260904043807 19 110 0.0 0.0 0.00 0.00 0.00 85 1015.0
20260904043310 19 269 0.0 0.0 0.00 0.00 0.00 85 1015.0
20260904042807 19 240 0.0 0.0 0.00 0.00 0.00 85 1015.0
20260904042307 19 182 0.0 0.0 0.00 0.00 0.00 85 1015.1
20260904041807 19 176 0.0 0.0 0.00 0.00 0.00 85 1015.0
20260904041307 19 238 0.0 0.0 0.00 0.00 0.00 85 1015.2
20260904040816 19 132 0.0 0.0 0.00 0.00 0.00 85 1015.2
20260904040303 19 181 0.0 0.0 0.00 0.00 0.00 85 1015.3
20260904035803 19 297 0.0 0.0 0.00 0.00 0.00 85 1015.4
20260904035305 19 242 0.0 0.0 0.00 0.00 0.00 85 1015.5
20260904034803 19 272 0.0 0.0 0.00 0.00 0.00 85 1015.5
20260904034305 19 186 0.0 0.0 0.00 0.00 0.00 85 1015.5
20260904033803 19 69 0.0 0.0 0.00 0.00 0.00 85 1015.4
20260904033303 19 196 0.0 0.0 0.00 0.00 0.00 86 1015.6
20260904032804 19 195 0.0 0.0 0.00 0.00 0.00 85 1015.6
20260904032259 19 209 0.0 0.0 0.00 0.00 0.00 85 1015.6
20260904031759 19 163 0.0 0.0 0.00 0.00 0.00 85 1015.6
20260904031300 19 185 0.0 0.0 0.00 0.00 0.00 86 1015.6
20260904030800 19 123 0.0 0.0 0.00 0.00 0.00 86 1015.6
20260904030301 19 126 0.0 0.0 0.00 0.00 0.00 86 1015.7
20260904025800 19 153 0.0 0.0 0.00 0.00 0.00 86 1015.8
20260904025259 19 180 0.0 0.0 0.00 0.00 0.00 86 1015.9
20260904024759 19 247 0.0 0.0 0.00 0.00 0.00 86 1016.0
20260904024300 19 74 0.0 0.0 0.00 0.00 0.00 86 1016.1
20260904023800 19 263 0.0 0.0 0.00 0.00 0.00 87 1016.1
20260904023520 19 259 0.0 0.0 0.00 0.00 0.00 87 1016.1
20260904022759 19 158 0.0 0.0 0.00 0.00 0.00 87 1016.1
20260904022259 19 251 0.0 0.0 0.00 0.00 0.00 87 1016.2
20260904022016 19 222 0.0 0.0 0.00 0.00 0.00 87 1016.2
20260904021259 19 174 0.0 0.0 0.00 0.00 0.00 88 1016.2
20260904020800 19 151 0.0 0.0 0.00 0.00 0.00 88 1016.2
20260904020259 18 114 0.0 0.0 0.00 0.00 0.00 87 1016.2
20260904015801 18 123 0.0 0.0 0.00 0.00 0.00 87 1016.2
20260904015258 18 123 0.0 0.0 0.00 0.00 0.00 88 1016.2
20260904014759 18 165 0.0 0.0 0.00 0.00 0.00 88 1016.2
20260904014518 18 176 0.0 0.0 0.00 0.00 0.00 88 1016.2
20260904013758 18 176 0.0 0.0 0.00 0.00 0.00 88 1016.2
20260904013257 18 125 0.0 0.0 0.00 0.00 0.00 88 1016.3
20260904013017 18 122 0.0 0.0 0.00 0.00 0.00 88 1016.3
20260904012258 18 101 0.0 0.0 0.00 0.00 0.00 87 1016.3
20260904011757 18 117 0.0 0.0 0.00 0.00 0.00 87 1016.4
20260904011254 18 211 0.0 0.0 0.00 0.00 0.00 87 1016.5
20260904011017 18 122 0.0 0.0 0.00 0.00 0.00 87 1016.6
20260904010253 18 172 0.0 0.0 0.00 0.00 0.00 87 1016.5
20260904010024 19 133 0.0 0.0 0.00 0.00 0.00 87 1016.6
20260904005253 19 125 0.0 0.0 0.00 0.00 0.00 87 1016.6
20260904005018 19 121 0.0 0.0 0.00 0.00 0.00 87 1016.7
20260904004253 19 124 0.0 0.0 0.00 0.00 0.00 86 1016.7
20260904003752 19 117 0.0 0.0 0.00 0.00 0.00 86 1016.7
20260904003250 19 251 0.0 0.0 0.00 0.00 0.00 86 1016.7
20260904002747 19 136 0.0 0.0 0.00 0.00 0.00 86 1016.7
20260904002245 19 221 0.0 0.0 0.00 0.00 0.00 86 1016.7
20260904002007 19 239 0.0 0.0 0.00 0.00 0.00 86 1016.7
20260904001243 19 99 0.0 0.0 0.00 0.00 0.00 86 1016.7
20260904000743 19 99 0.0 0.0 0.00 0.00 0.00 86 1017.0
20260904000241 19 142 0.0 0.0 0.00 0.00 0.00 86 1017.0
20260903235741 19 208 0.0 0.0 0.00 0.00 0.00 86 1017.1
20260903235241 19 130 0.0 0.0 0.00 0.00 0.00 86 1017.2
20260903234953 19 261 0.0 0.0 0.00 0.00 0.00 87 1017.2
20260903234241 19 203 0.0 0.0 0.00 0.00 0.00 86 1017.2
20260903234209 19 258 0.0 0.0 0.00 0.00 0.00 86 1017.2
20260903233217 19 114 0.0 0.0 0.00 0.00 0.00 86 1017.2
20260903232710 19 59 0.0 0.0 0.00 0.00 0.00 86 1017.2
20260903232427 19 303 0.0 0.0 0.00 0.00 0.00 86 1017.3
20260903231658 19 181 0.0 0.0 0.00 0.00 0.00 86 1017.3
20260903231152 19 174 0.0 0.0 0.00 0.00 0.00 86 1017.3
20260903230922 19 184 0.0 0.0 0.00 0.00 0.00 86 1017.5
20260903230414 19 168 0.0 0.0 0.00 0.00 0.00 86 1017.5
20260903225650 19 204 0.0 0.0 0.00 0.00 0.00 86 1017.4
20260903225407 19 219 0.0 0.0 0.00 0.00 0.00 85 1017.5
20260903224645 19 132 0.0 0.0 0.00 0.00 0.00 85 1017.5
20260903224402 19 126 0.0 0.0 0.00 0.00 0.00 85 1017.5
20260903223645 19 136 0.0 0.0 0.00 0.00 0.00 85 1017.7
20260903223146 19 136 0.0 0.0 0.00 0.00 0.00 85 1017.6
20260903222641 19 168 0.0 0.0 0.00 0.00 0.00 85 1017.6
20260903222139 19 180 0.0 0.0 0.00 0.00 0.00 85 1017.8
20260903221639 19 176 0.0 0.0 0.00 0.00 0.00 85 1017.9
20260903221134 19 180 0.0 0.0 0.00 0.00 0.00 85 1018.1
20260903220633 19 176 0.0 0.0 0.00 0.00 0.00 85 1018.2
20260903220131 19 231 0.0 0.0 0.00 0.00 0.00 85 1018.3
20260903215628 19 237 0.0 0.0 0.00 0.00 0.00 85 1018.2
20260903215128 19 98 0.0 0.0 0.00 0.00 0.00 85 1018.2
20260903214629 19 165 0.0 0.0 0.00 0.00 0.00 85 1018.3
20260903214129 19 136 0.0 0.0 0.00 0.00 0.00 85 1018.3
20260903213628 19 155 0.0 0.0 0.00 0.00 0.00 85 1018.4
20260903213128 19 147 0.0 0.0 0.00 0.00 0.00 85 1018.3
20260903212628 18 161 0.0 0.0 0.00 0.00 0.00 85 1018.3
20260903212128 18 116 0.0 0.0 0.00 0.00 0.00 85 1018.3
20260903211628 18 109 0.0 0.0 0.00 0.00 0.00 85 1018.5
20260903211129 18 109 0.0 0.0 0.00 0.00 0.00 85 1018.5
20260903210628 18 108 0.0 0.0 0.00 0.00 0.00 85 1018.4
20260903210128 18 108 0.0 0.0 0.00 0.00 0.00 85 1018.5
20260903205849 18 108 0.0 0.0 0.00 0.00 0.00 85 1018.5
20260903205124 18 109 0.0 0.0 0.00 0.00 0.00 85 1018.5
20260903204845 18 117 0.0 0.0 0.00 0.00 0.00 85 1018.5
20260903204125 18 114 0.0 0.0 0.00 0.00 0.00 85 1018.4
20260903203624 18 111 0.0 0.0 0.00 0.00 0.00 85 1018.4
20260903203124 18 97 0.0 0.0 0.00 0.00 0.00 85 1018.5
20260903202624 18 97 0.0 0.0 0.00 0.00 0.00 85 1018.5
20260903202124 18 97 0.0 0.0 0.00 0.00 0.00 85 1018.5
20260903201850 18 97 0.0 0.0 0.00 0.00 0.00 85 1018.6
20260903201120 18 99 0.0 0.0 0.00 0.00 0.00 85 1018.4
20260903200620 18 99 0.0 0.0 0.00 0.00 0.00 85 1018.4
20260903200121 18 142 0.0 0.0 0.00 0.00 0.00 85 1018.4
20260903195621 18 142 0.0 0.0 0.00 0.00 0.00 85 1018.2
20260903195120 18 141 0.0 0.0 0.00 0.00 0.00 85 1018.2
20260903194621 18 112 0.0 0.0 0.00 0.00 0.00 85 1018.1
20260903194121 18 111 0.0 0.0 0.00 0.00 0.00 85 1018.1
20260903193621 18 80 0.0 0.0 0.00 0.00 0.00 85 1018.2
20260903193340 18 80 0.0 0.0 0.00 0.00 0.00 85 1018.2
20260903192616 18 80 0.0 0.0 0.00 0.00 0.00 85 1018.3
20260903192117 18 80 0.0 0.0 0.00 0.00 0.00 85 1018.4
20260903191617 18 80 0.0 0.0 0.00 0.00 0.00 85 1018.4
20260903191116 18 309 0.0 0.0 0.00 0.00 0.00 84 1018.6
20260903190616 18 309 0.0 0.0 0.00 0.00 0.00 84 1018.6
20260903190350 18 307 0.0 0.0 0.00 0.00 0.00 84 1018.6
20260903185619 18 294 0.0 0.0 0.00 0.00 0.00 84 1018.8
20260903185117 19 274 0.0 0.0 0.00 0.00 0.00 84 1018.6
20260903184617 19 274 0.0 0.0 0.00 0.00 0.00 84 1018.3
20260903184112 19 269 0.0 0.0 0.00 0.00 0.00 83 1018.3
20260903183612 19 263 0.0 0.0 0.00 0.00 0.00 83 1018.4
20260903183112 19 202 0.0 0.0 0.00 0.00 0.00 83 1018.0
20260903182614 19 166 0.0 0.0 0.00 0.00 0.00 83 1017.9
20260903182112 19 168 0.0 0.0 0.00 0.00 0.00 83 1017.9
20260903181612 19 168 0.0 0.0 0.00 0.00 0.00 83 1017.9
20260903181112 19 175 0.0 0.0 0.00 0.00 0.00 83 1017.8
20260903180612 19 169 0.0 0.0 0.00 0.00 0.00 83 1017.7
20260903180115 19 178 0.0 0.0 0.00 0.00 0.00 83 1017.7
20260903175608 19 196 0.0 0.0 0.00 0.00 0.00 83 1017.9
20260903175108 19 134 0.0 0.0 0.00 0.00 0.00 83 1017.8
20260903174608 19 134 0.0 0.0 0.00 0.00 0.00 83 1018.3
20260903174109 19 260 0.0 0.0 0.00 0.00 0.00 83 1018.3
20260903173608 19 151 0.0 0.0 0.00 0.00 0.00 83 1018.2
20260903173108 20 153 0.0 0.0 0.00 0.00 0.00 83 1018.2
20260903172609 20 142 0.0 0.0 0.00 0.00 0.00 82 1018.1
20260903172108 20 141 0.0 0.0 0.00 0.00 0.00 82 1018.2
20260903171833 20 143 0.0 0.0 0.00 0.00 0.00 82 1018.1
20260903171109 20 169 0.0 0.0 0.00 0.00 0.00 82 1017.9
20260903170609 20 199 0.0 0.0 0.00 0.00 0.00 82 1018.0
20260903170114 20 224 0.0 0.0 0.00 0.00 0.00 82 1017.9
20260903165610 20 286 0.0 0.0 0.00 0.00 0.00 82 1017.9
20260903165109 20 209 0.0 0.0 0.00 0.00 0.00 82 1017.8
20260903164608 20 191 0.0 0.0 0.00 0.00 0.00 82 1017.7
20260903164110 20 252 0.0 0.0 0.00 0.00 0.00 82 1017.8
20260903163830 20 210 0.0 0.0 0.00 0.00 0.00 82 1017.8
20260903163108 20 255 0.0 0.0 0.00 0.00 0.00 81 1017.9
20260903162608 20 193 0.0 0.0 0.00 0.00 0.00 81 1017.9
20260903162108 20 166 0.0 0.0 0.00 0.00 0.00 81 1017.9
20260903161608 20 153 0.0 0.0 0.00 0.00 0.00 82 1017.9
20260903161334 20 161 0.0 0.0 0.00 0.00 0.00 82 1018.1
20260903160830 20 274 0.0 0.0 0.00 0.00 0.00 82 1018.0
20260903160108 20 171 0.0 0.0 0.00 0.00 0.00 82 1018.1
20260903155604 20 176 0.0 0.0 0.00 0.00 0.00 82 1018.0
20260903155100 20 228 0.0 0.0 0.00 0.00 0.00 82 1018.0
20260903154601 20 175 0.0 0.0 0.00 0.00 0.00 81 1018.0
20260903154321 20 226 0.0 0.0 0.00 0.00 0.00 81 1018.2
20260903153600 20 226 0.0 0.0 0.00 0.00 0.00 81 1018.1
20260903153100 20 230 0.0 0.0 0.00 0.00 0.00 81 1018.2
20260903152558 20 259 0.0 0.0 0.00 0.00 0.00 81 1018.4